TimeMST,TemperatureF,Dew PointF,Humidity,Sea Level PressureIn,VisibilityMPH,Wind Direction,Wind SpeedMPH,Gust SpeedMPH,PrecipitationIn,Events,Conditions,WindDirDegrees,DateUTC
12:53 AM,5.0,3.0,92,30.08,10.0,West,5.8,-,N/A,,Overcast,260,2012-12-28 07:53:00
1:06 AM,5.0,3.2,92,29.90,10.0,West,5.8,-,N/A,,Overcast,260,2012-12-28 08:06:00
1:53 AM,3.0,1.0,91,30.10,9.0,West,6.9,-,N/A,,Overcast,260,2012-12-28 08:53:00
2:11 AM,3.2,1.4,92,29.91,7.0,WSW,4.6,-,N/A,,Overcast,240,2012-12-28 09:11:00
2:16 AM,3.2,1.4,92,29.91,5.0,WSW,3.5,-,N/A,,Overcast,240,2012-12-28 09:16:00
2:25 AM,3.2,1.4,92,29.91,4.0,WSW,3.5,-,N/A,,Mostly Cloudy,250,2012-12-28 09:25:00
2:33 AM,3.2,-0.4,85,29.90,4.0,WSW,4.6,-,N/A,,Mostly Cloudy,240,2012-12-28 09:33:00
2:53 AM,3.0,-0.0,87,30.10,5.0,Calm,Calm,-,N/A,,Mostly Cloudy,0,2012-12-28 09:53:00
3:53 AM,3.0,-0.0,87,30.09,9.0,Calm,Calm,-,N/A,,Mostly Cloudy,0,2012-12-28 10:53:00
4:53 AM,-0.0,-2.9,88,30.11,10.0,Calm,Calm,-,N/A,,Scattered Clouds,0,2012-12-28 11:53:00
5:53 AM,-0.0,-2.9,88,30.12,10.0,West,4.6,-,N/A,,Clear,270,2012-12-28 12:53:00
6:53 AM,1.9,-0.9,88,30.14,10.0,WNW,3.5,-,N/A,,Mostly Cloudy,290,2012-12-28 13:53:00
7:53 AM,5.0,1.9,87,30.15,10.0,West,8.1,-,N/A,,Mostly Cloudy,280,2012-12-28 14:53:00
8:53 AM,7.0,3.9,87,30.16,10.0,West,3.5,-,N/A,,Clear,280,2012-12-28 15:53:00
9:53 AM,14.0,9.0,80,30.16,10.0,WNW,5.8,-,N/A,,Mostly Cloudy,290,2012-12-28 16:53:00
10:53 AM,19.9,12.0,71,30.14,10.0,WNW,9.2,-,N/A,,Clear,290,2012-12-28 17:53:00
11:53 AM,25.0,14.0,63,30.11,10.0,WNW,12.7,-,N/A,,Clear,300,2012-12-28 18:53:00
12:53 PM,28.9,17.1,61,30.09,10.0,NW,8.1,-,N/A,,Clear,310,2012-12-28 19:53:00
1:53 PM,30.0,17.1,59,30.09,10.0,WNW,5.8,-,N/A,,Partly Cloudy,290,2012-12-28 20:53:00
2:53 PM,30.9,17.1,57,30.11,10.0,WNW,6.9,-,N/A,,Partly Cloudy,290,2012-12-28 21:53:00
3:53 PM,30.0,18.0,61,30.13,10.0,WNW,6.9,-,N/A,,Overcast,290,2012-12-28 22:53:00
4:53 PM,26.1,15.1,63,30.18,10.0,WNW,6.9,-,N/A,,Overcast,300,2012-12-28 23:53:00
5:53 PM,21.0,12.9,71,30.21,10.0,West,3.5,-,N/A,,Partly Cloudy,260,2012-12-29 00:53:00
6:53 PM,19.0,14.0,81,30.23,10.0,WSW,3.5,-,N/A,,Mostly Cloudy,250,2012-12-29 01:53:00
7:53 PM,18.0,12.0,78,30.22,10.0,West,6.9,-,N/A,,Mostly Cloudy,280,2012-12-29 02:53:00
8:53 PM,16.0,10.0,77,30.24,10.0,WNW,5.8,-,N/A,,Clear,290,2012-12-29 03:53:00
9:53 PM,14.0,7.0,74,30.25,10.0,NW,4.6,-,N/A,,Clear,310,2012-12-29 04:53:00
10:53 PM,12.9,6.1,74,30.24,10.0,WNW,3.5,-,N/A,,Clear,300,2012-12-29 05:53:00
11:53 PM,12.9,6.1,74,30.23,10.0,NW,8.1,-,N/A,,Clear,320,2012-12-29 06:53:00